RH
4 4 6 20 55 84 97 92 98 100 100 96 100 100 100 93 74 12 12 24 30 30 36 48 59 60 60 53 52 56 30 25 62 79 88 75 42 74 88 83 74 76 69 73 100 86 67
5 4 3 4 8 54 82 95 97 97 100 98 100 100 100 97 86 28 11 22 29 33 42 55 61 60 60 61 69 45 24 69 95 96 97 93 45 73 91 85 81 75 68 94 94 93 77
4 4 4 3 3 4 59 85 97 99 97 100 98 100 100 96 90 46 12 20 26 36 45 59 61 54 61 66 69 25 64 83 94 94 85 90 70 85 94 90 80 89 66 94 99 97 100
4 3 3 2 2 2 3 26 97 78 91 96 91 100 100 93 98 71 14 20 26 40 51 60 55 55 50 63 45 36 83 92 86 74 91 87 87 98 98 91 78 84 96 98 96 98 100
3 3 2 2 2 2 2 2 24 100 98 83 100 100 100 100 99 71 18 21 26 43 58 62 50 51 40 39 22 36 42 71 97 69 76 88 95 98 100 89 78 91 79 97 99 96 98
4 4 4 3 2 3 2 2 4 34 100 87 95 97 100 100 99 61 30 23 27 43 65 59 53 45 31 20 28 35 33 50 89 86 82 92 98 97 100 93 91 84 81 98 99 99 97
3 3 3 3 3 3 2 2 2 25 82 96 99 94 100 100 99 81 36 24 30 44 65 55 48 36 24 18 30 37 31 51 68 92 98 98 88 98 100 92 83 54 88 99 96 98 99
5 5 5 6 5 3 4 3 2 3 52 92 82 97 100 100 99 94 29 25 28 41 67 52 46 23 20 19 20 35 37 53 70 78 89 85 85 86 93 87 81 74 64 82 94 97 95
7 8 8 9 9 9 4 5 6 3 21 80 95 100 100 100 100 89 28 24 29 46 68 53 55 45 33 20 16 28 34 56 66 57 63 84 98 74 98 87 80 85 74 70 58 89 94
12 14 18 20 20 17 12 5 6 8 10 87 100 97 100 100 99 90 25 25 29 53 71 60 62 67 41 18 19 19 33 48 73 71 58 77 99 85 95 99 90 82 87 74 74 88 97
26 34 46 44 36 25 20 14 9 10 8 84 100 99 100 99 100 92 34 28 31 61 93 67 61 72 70 57 31 24 37 44 65 71 64 84 99 95 97 98 90 94 78 94 88 83 91
58 69 69 62 47 41 29 24 13 11 10 31 100 100 100 100 100 78 30 31 35 74 93 84 65 72 86 82 90 79 71 52 62 81 98 87 95 90 96 98 99 86 98 99 100 99 97
84 82 81 81 70 56 44 34 28 19 12 12 99 100 99 100 100 70 33 32 42 97 70 78 59 76 93 96 95 96 88 55 77 96 99 92 86 92 96 92 82 92 90 98 98 98 87
88 86 85 95 90 64 48 49 48 60 20 12 95 100 99 99 100 61 37 31 61 65 66 73 63 84 87 93 90 90 74 71 70 94 94 88 86 99 96 79 87 99 73 77 93 95 77
92 92 89 81 70 65 70 90 99 76 40 93 98 98 99 99 99 40 44 29 36 58 68 84 77 84 90 91 94 89 92 71 69 75 91 91 97 86 98 100 92 87 69 69 61 69 68
94 93 92 73 67 76 86 96 90 62 49 99 98 98 100 99 88 40 51 22 40 72 73 82 74 79 80 92 94 97 88 87 74 96 94 92 96 95 99 99 98 84 67 63 60 74 61
96 94 67 68 77 93 93 94 94 91 62 97 98 98 99 99 85 54 41 19 37 70 78 76 89 82 76 83 98 81 80 76 91 100 97 86 80 92 94 93 93 82 78 67 63 69 74
98 87 60 80 83 92 95 95 96 98 48 98 98 98 98 99 90 63 26 16 50 82 85 83 93 83 71 83 87 82 84 84 92 97 92 84 86 96 93 82 80 83 79 68 57 69 64
97 65 73 61 84 90 95 97 98 87 93 98 98 98 98 99 82 46 16 22 52 88 88 89 93 79 76 78 88 94 87 87 87 89 79 70 67 89 92 92 84 82 72 72 66 63 64
88 65 63 35 94 93 95 97 100 96 98 98 98 98 98 99 77 26 18 34 65 91 90 91 81 85 78 89 94 90 84 88 82 87 84 79 74 68 66 67 73 78 71 72 73 67 61
85 65 20 40 86 96 98 99 69 93 98 99 98 98 86 84 73 20 22 56 99 96 95 90 80 84 78 94 97 94 88 82 86 86 86 78 71 76 73 80 76 73 69 66 67 69 71
73 65 29 56 93 97 98 91 83 97 98 99 100 98 91 62 20 25 30 53 65 93 89 85 76 83 80 85 82 81 82 88 96 89 90 85 83 84 81 79 76 69 70 70 69 72 71
69 21 40 68 95 92 83 91 98 98 95 98 98 99 60 33 13 26 28 48 62 80 78 76 79 84 92 79 84 84 87 87 88 92 90 87 80 79 80 77 75 69 59 59 58 56 56
29 27 49 54 97 97 95 88 96 98 99 99 99 99 27 16 18 19 40 60 66 75 62 73 88 88 87 86 87 85 87 88 92 85 86 89 85 80 80 81 88 64 62 65 63 62 59
21 42 58 44 96 90 96 95 98 99 99 98 98 44 24 14 25 48 75 79 80 79 73 74 85 90 88 87 88 92 96 92 93 90 84 88 87 84 92 91 72 58 66 66 63 58 54
29 51 58 77 97 93 95 98 96 97 98 99 53 36 24 17 34 55 83 85 81 86 82 80 86 88 88 88 84 79 84 81 81 85 91 91 93 92 99 98 84 66 63 57 56 58 50
44 46 49 98 99 97 98 97 99 98 99 94 42 27 24 20 35 62 60 87 94 90 86 82 83 84 87 89 86 81 76 78 76 86 97 99 93 93 92 89 71 63 68 67 66 54 54
35 41 64 92 93 95 99 98 99 99 97 57 26 24 23 27 38 52 54 72 75 88 84 78 90 90 92 87 83 72 76 74 81 79 76 90 94 92 87 94 80 63 67 68 64 63 61
71 81 92 81 91 97 89 98 99 92 68 24 26 19 25 33 39 50 59 81 80 77 77 68 63 69 77 73 66 70 78 83 79 77 80 81 74 73 69 69 67 68 69 69 72 71 68
Wind_Speed
35 34 34 31 26 24 26 28 30 32 34 30 30 28 34 36 39 39 34 27 25 22 19 18 20 22 24 19 19 21 23 21 21 15 19 26 29 26 26 27 30 31 26 45 33 32 35
38 37 37 35 35 30 27 27 30 29 35 28 31 29 31 36 39 39 37 27 24 21 18 18 18 24 19 18 17 20 21 17 23 18 24 26 28 25 23 26 32 19 25 27 29 35 32
41 41 41 41 39 39 33 32 28 28 33 31 34 27 33 30 32 37 34 28 24 20 16 16 19 18 19 12 16 15 18 19 8 12 25 25 27 26 21 23 27 9 31 35 29 34 23
43 43 43 43 43 43 41 39 31 29 30 37 31 27 32 29 30 32 32 28 24 18 15 14 19 18 12 13 12 10 11 18 12 8 16 22 29 20 15 22 16 21 19 32 30 27 25
42 43 43 45 44 44 45 41 34 33 33 34 38 30 33 31 28 28 30 27 23 17 14 13 14 14 12 10 7 7 9 11 8 7 16 17 21 17 12 25 18 20 13 24 10 34 30
42 42 42 40 44 44 44 42 36 32 32 29 34 37 30 31 30 24 32 25 23 16 12 11 9 8 8 8 5 4 7 8 5 4 14 15 15 15 19 23 17 21 19 18 9 18 29
43 42 43 42 39 44 45 42 37 33 30 31 32 38 33 31 28 26 26 23 22 15 11 9 8 3 5 6 4 3 6 7 5 2 4 4 11 4 23 21 13 23 21 18 15 10 15
44 44 43 42 39 39 39 44 43 35 31 30 31 34 34 33 30 24 20 22 20 14 8 8 4 3 4 5 3 1 4 4 4 3 6 5 6 6 10 21 12 15 22 16 7 9 6
41 42 42 42 41 39 42 34 35 36 33 32 34 30 34 33 33 24 19 19 18 13 7 7 2 2 2 4 4 1 3 5 5 4 7 6 5 9 5 16 15 16 20 17 15 14 14
42 42 41 39 37 38 37 45 36 33 36 37 36 31 32 33 28 20 17 18 16 11 6 5 3 1 1 2 2 2 3 2 4 8 7 5 7 12 11 11 16 21 16 17 13 14 5
50 45 37 33 32 31 33 37 45 37 37 42 38 34 34 32 31 19 16 15 14 6 3 5 4 2 3 1 2 2 3 2 5 10 8 1 16 12 9 7 16 12 14 15 15 11 8
44 41 40 40 40 40 34 36 43 47 35 47 35 31 34 35 32 16 12 12 12 2 5 5 5 1 4 2 4 4 3 4 10 8 10 8 9 7 11 9 6 13 15 12 15 15 3
41 42 43 47 46 43 48 47 44 53 40 47 38 32 33 40 24 16 8 10 5 5 5 6 6 4 6 5 3 4 4 9 9 7 10 10 3 5 7 12 9 21 20 4 2 2 1
44 46 48 52 36 40 39 35 32 40 37 39 32 24 30 37 24 15 9 11 5 6 7 7 9 8 6 4 7 7 10 10 11 11 12 5 3 4 7 11 7 19 11 5 3 2 3
45 47 44 47 40 36 34 32 27 30 26 20 15 29 26 35 16 15 12 12 4 8 11 11 12 9 7 3 3 8 8 9 8 9 3 6 3 4 7 8 19 16 7 4 7 5 2
46 44 40 39 39 30 29 35 29 27 21 22 18 33 30 32 17 16 16 18 10 9 12 15 7 7 7 7 6 8 4 6 13 8 5 7 9 7 12 11 9 10 11 3 3 3 2
47 42 39 36 27 26 31 23 18 23 27 29 26 37 34 26 21 18 22 18 15 14 13 17 7 10 9 9 6 7 6 13 9 6 6 10 7 9 10 5 9 12 6 2 2 2 3
41 38 36 28 25 29 31 32 28 18 34 23 38 40 34 29 23 25 23 17 15 17 19 15 10 12 10 9 8 4 6 7 9 5 7 4 9 10 8 7 9 10 11 6 2 3 3
39 38 33 25 25 30 29 27 9 29 26 36 45 39 29 27 25 25 18 17 17 22 21 15 14 13 13 12 7 7 7 8 13 8 6 2 4 8 3 6 10 13 12 12 9 3 2
33 35 29 24 25 29 31 11 26 32 31 29 45 29 31 28 26 19 16 18 19 22 22 17 14 14 15 14 5 9 8 10 15 11 7 4 5 3 5 3 5 9 13 11 11 5 5
30 31 23 22 24 21 6 10 37 41 26 30 48 28 28 24 30 19 19 19 19 23 22 17 16 16 18 15 11 9 9 11 14 14 11 7 5 4 5 2 1 3 8 13 16 16 7
31 26 18 16 21 11 11 18 28 24 40 38 49 13 28 16 14 23 24 22 23 24 25 23 14 18 18 14 12 10 8 11 10 18 14 10 8 6 4 4 4 4 5 7 13 19 19
26 20 13 14 10 1 18 26 12 30 21 44 34 26 17 19 14 27 28 23 24 23 21 20 15 18 16 12 9 7 5 8 6 15 14 11 7 7 4 5 5 9 11 13 14 13 13
16 12 13 16 10 9 13 19 26 28 40 46 26 23 13 13 16 22 19 20 24 21 16 21 19 17 15 12 11 7 7 7 8 8 12 9 10 5 1 2 1 3 5 4 5 9 14
9 9 13 18 17 7 7 15 25 33 39 35 26 20 16 10 14 24 24 21 24 21 13 22 21 17 17 14 12 8 7 6 8 7 6 7 7 2 1 4 7 7 7 7 7 9 9
5 9 9 11 3 10 4 15 29 31 32 29 28 20 14 11 18 25 24 21 25 24 19 22 20 18 18 17 14 6 6 6 6 5 11 8 7 6 2 1 4 3 6 5 4 11 8
8 11 8 7 7 8 7 20 27 25 24 25 23 23 17 12 18 26 22 25 24 24 22 23 22 19 19 19 15 8 6 8 5 6 8 12 10 11 8 6 7 9 8 7 5 5 6
10 10 9 5 10 6 15 21 24 20 29 23 20 18 17 13 17 24 19 24 23 24 22 24 22 24 22 17 12 7 7 11 7 6 5 14 10 10 12 6 9 7 13 13 8 9 9
7 10 5 2 4 10 22 24 23 28 28 20 18 14 16 14 14 21 22 21 21 20 22 18 19 20 19 18 13 11 7 12 12 7 10 8 8 4 8 7 8 5 10 11 11 11 12
Wind_Direction
298 299 299 295 290 286 289 297 298 306 308 314 303 318 329 338 342 336 328 324 317 318 317 312 308 309 315 312 311 317 314 309 295 264 228 214 209 215 219 218 214 222 237 211 205 185 188
294 293 293 293 291 287 284 285 293 298 301 310 307 310 321 334 339 338 329 325 318 320 315 312 309 317 317 313 322 324 317 315 316 262 213 212 204 207 223 217 214 233 223 222 192 194 187
293 293 293 292 292 291 284 283 281 288 297 303 304 305 312 332 336 336 332 323 319 318 315 313 314 322 320 316 333 330 327 344 345 266 200 200 199 196 206 207 218 183 211 210 211 208 199
291 289 287 288 290 290 287 283 288 293 294 298 299 299 305 325 326 341 333 323 318 316 311 313 323 329 330 343 338 350 2 348 2 177 181 191 212 176 190 197 207 201 205 214 211 195 194
284 284 286 286 285 286 285 284 277 287 289 296 297 303 293 317 326 345 331 323 317 312 308 313 328 334 350 1 354 5 7 16 37 150 170 190 210 207 191 192 179 197 209 196 208 210 186
291 288 285 284 283 284 279 280 276 272 282 286 293 284 300 299 321 341 332 322 315 308 303 317 324 347 360 10 10 20 33 22 3 164 180 198 212 180 199 182 181 187 199 199 207 161 196
292 290 287 284 279 280 277 276 274 258 273 274 286 288 301 292 318 329 335 317 311 304 293 309 319 8 7 5 21 6 44 36 30 163 82 142 196 205 164 180 184 200 192 192 206 156 189
294 292 292 292 287 272 272 269 273 264 254 281 267 280 291 288 310 322 331 312 309 296 284 287 328 31 22 356 324 344 19 60 64 145 157 121 225 200 165 190 178 197 205 206 180 190 215
290 290 290 290 291 290 273 264 273 263 246 256 263 275 287 289 301 319 320 312 307 293 258 261 306 358 345 346 318 12 3 52 94 119 170 98 192 202 172 180 184 187 181 180 205 194 215
293 289 290 289 283 280 280 277 275 271 239 242 260 264 283 288 295 309 312 312 303 290 256 239 249 302 274 301 297 120 20 43 88 124 147 275 180 179 186 154 171 172 181 181 179 166 166
309 307 302 295 288 277 271 270 275 273 247 239 253 252 270 285 282 307 310 306 297 276 344 201 208 201 77 287 250 209 126 105 109 141 142 82 137 158 204 137 148 162 189 178 174 185 180
305 303 303 304 299 295 283 275 272 273 260 239 243 248 261 275 271 294 296 297 287 247 265 212 184 199 60 328 245 167 195 111 119 127 125 121 116 137 148 160 150 166 157 135 161 168 172
302 300 300 299 294 295 291 286 273 269 260 241 232 242 251 261 269 280 264 275 259 221 205 214 181 144 86 36 33 140 123 146 132 120 119 143 141 158 161 186 192 167 152 111 108 128 211
301 302 301 296 292 294 288 279 269 268 253 248 233 243 241 256 256 262 237 251 221 229 190 179 163 140 114 79 79 107 145 147 126 131 117 113 236 166 184 187 171 158 167 128 125 148 173
304 305 302 303 303 295 288 278 275 271 259 209 233 245 248 249 234 241 217 237 242 221 204 177 163 163 142 161 114 127 124 144 165 135 96 129 149 172 136 143 162 164 136 87 98 87 91
306 306 304 299 293 286 284 287 281 264 239 196 239 242 243 239 219 220 216 245 228 205 190 180 164 160 158 166 166 146 134 149 143 126 94 129 122 164 87 111 96 129 133 84 49 117 215
312 306 308 302 295 294 295 280 269 260 245 199 230 228 233 219 215 208 225 246 235 201 190 173 169 162 150 159 157 153 162 159 154 137 107 116 138 162 132 130 135 163 160 133 126 61 145
312 312 308 298 290 288 293 285 297 232 184 207 216 215 219 212 199 211 235 243 222 192 181 184 180 161 164 167 159 124 163 163 166 154 160 95 134 147 166 154 172 175 187 198 201 186 106
309 313 304 294 288 300 296 309 207 170 191 200 197 198 206 209 210 225 235 227 205 188 186 184 178 168 177 177 160 153 176 184 177 170 167 130 106 128 163 228 204 203 202 217 236 161 126
309 307 298 289 294 301 305 338 196 185 204 205 194 170 185 208 218 225 223 210 194 187 189 185 187 186 178 173 168 175 177 182 189 197 210 198 175 186 180 120 175 205 210 209 219 246 221
310 304 290 297 304 310 346 250 179 195 201 198 198 196 205 216 216 212 213 197 187 182 188 193 201 194 186 173 183 174 184 186 190 195 210 200 195 160 153 105 162 223 223 230 232 231 231
307 298 292 309 300 346 228 229 169 197 214 200 198 194 205 219 229 210 206 192 193 184 186 190 192 190 194 194 193 181 184 185 177 191 193 190 185 178 200 235 257 265 245 241 240 245 247
297 293 297 311 343 3 241 247 244 199 201 192 192 203 197 216 220 194 202 188 187 190 189 189 185 186 184 192 173 162 172 162 179 189 191 198 196 182 205 222 265 283 261 253 255 254 253
300 289 318 321 336 272 230 246 224 192 201 197 191 193 207 202 202 197 187 184 185 186 195 180 180 187 179 179 182 178 162 162 163 181 207 227 224 193 197 146 359 219 225 227 238 247 252
305 324 325 317 330 277 325 239 155 191 201 203 189 178 196 199 185 179 176 179 179 184 189 182 182 181 179 177 171 161 165 178 194 199 193 207 204 201 169 197 288 262 232 240 256 259 261
333 342 313 293 155 356 1 139 151 181 195 199 155 174 187 184 180 180 178 180 181 181 178 184 182 187 189 186 183 177 177 196 201 206 215 209 209 205 189 234 219 247 194 189 234 265 257
346 355 312 277 251 324 122 151 167 176 183 160 171 180 185 183 186 185 183 183 188 187 187 182 184 184 191 193 187 176 184 188 200 204 192 196 211 227 222 244 267 232 222 233 244 280 298
342 4 326 211 294 301 138 157 161 171 165 172 169 178 186 173 178 185 188 189 190 194 193 189 185 195 190 193 201 184 196 195 203 213 219 196 191 210 225 236 264 240 231 237 263 283 286
14 16 356 327 13 125 152 156 156 153 164 171 166 175 177 178 183 183 190 190 194 199 202 205 196 201 196 196 201 204 194 194 201 201 206 203 206 209 206 227 253 262 241 256 270 272 274